Home > Weather > Bad Kissingen > Past weeks

Flag for Germany Weather for the Past 2 Weeks in Bad Kissingen, Bavaria, Germany

Now
57 °F

Sunny.


Feels Like: 57 °F
Forecast: 46 / 70 °F
Wind: 2 mph from Southeast

Location: Illesheim

Current Time: May 6, 2016 at 9:25:40 PM

Latest Report: May 6, 2016 at 8:58 PM


Visibility: N/A

Pressure: 29.95 "Hg

Humidity: 63%

Dew Point: 45 °F

Location of Bad KissingenLocation

Historic Weather in Bad Kissingen — Graph

°F

Bad Kissingen Temperature Yesterday

Maximum temperature yesterday: 65 °F (at 5:58 PM)
Minimum temperature yesterday: 31 °F (at 4:58 AM)
Average temperature yesterday: 49 °F

High & Low Weather Summary for the Past Weeks

 TemperatureHumidityPressure
High72 °F (May 6, 4:58 PM)100% (Apr 23, 11:58 PM)30.39 "Hg (Apr 23, 11:58 PM)
Low27 °F (Apr 29, 4:58 AM)32% (May 6, 5:58 PM)29.53 "Hg (Apr 26, 5:59 AM)
Average45 °F73%30.02 "Hg
* Reported Apr 21 7:58 PM — May 6 7:58 PM, Bad Kissingen, Weather by CustomWeather, © 2016

Note: Actual official high and low records may vary slightly from our data, if they occured in-between our weather recording intervals... More about our weather records

Advertising

Bad Kissingen Weather History for the Previous 24 Hours

Scroll right to see more
 ConditionsComfort  
Time TempWeatherWind HumidityBarometerVisibility
7:58 PM
Fri, May 6
68 °FSunny.3 mph38%29.93 "HgN/A
6:58 PM71 °FSunny.6 mph37%29.94 "HgN/A
5:58 PM72 °FSunny.6 mph32%29.95 "HgN/A
4:58 PM72 °FSunny.6 mph35%29.95 "HgN/A
3:58 PM72 °FPassing clouds.7 mph37%29.97 "HgN/A
2:58 PM72 °FSunny.5 mph40%29.99 "HgN/A
1:58 PM71 °FSunny.7 mph44%30.01 "HgN/A
12:58 PM68 °FSunny.7 mph47%30.04 "HgN/A
11:58 AM66 °FSunny.7 mph53%30.05 "HgN/A
10:58 AM64 °FSunny.3 mph59%30.06 "HgN/A
9:58 AM61 °FSunny.7 mph63%30.08 "HgN/A
8:58 AM57 °FSunny.5 mph72%30.08 "HgN/A
7:58 AM52 °FSunny.6 mph82%30.09 "HgN/A
6:58 AM46 °FSunny.3 mph87%30.09 "HgN/A
5:58 AM45 °FClear.2 mph90%30.09 "HgN/A
4:58 AM46 °FClear.5 mph87%30.09 "HgN/A
3:58 AM47 °FClear.5 mph87%30.10 "HgN/A
2:58 AM46 °FClear.3 mph87%30.11 "HgN/A
1:58 AM48 °FClear.6 mph83%30.12 "HgN/A
12:58 AM48 °FClear.2 mph82%30.14 "HgN/A
11:58 PM
Thu, May 5
46 °FClear.2 mph82%30.14 "HgN/A
10:58 PM46 °FClear.3 mph82%30.15 "HgN/A
9:58 PM50 °FClear.3 mph76%30.16 "HgN/A
Weather by CustomWeather, © 2016

See weather overviewHow to use our weather pages